Terminal Aerodrome Forecast
Issued by NWS

Home | Current Version | Previous Version | Text Only | Print | Product List | Glossary On
Versions: 1 2 3 4 5 6 7 8 9 10 11 12 13 14 15 16
000
FTUS44 KEPZ 072035 AAC
TAFTCS
TAF AMD
KTCS 072035Z 0721/0818 32012G27KT P6SM VCTS SCT050CB BKN100
      TEMPO 0721/0722 VRB35G50KT 2SM TSRAGR BKN030CB OVC050
     FM072300 30008KT P6SM VCTS SCT050CB BKN090 BKN200
      TEMPO 0723/0803 VRB25G37KT 4SM TSRA BKN040CB OVC080
     FM080400 23008KT P6SM VCTS BKN050CB BKN200=

USA.gov is the U.S. government's official web portal to all federal, state and local government web resources and services.